Weather History for Tacoma, WA

Change the Weather History Date:

Sunday, June 17, 2012

  Actual Average Record
Temperature  
Mean Temperature 60 °F -  
Max Temperature 66 °F 68 °F 90 °F (1969)
Min Temperature 53 °F 48 °F 41 °F (2011)
Degree Days  
Heating Degree Days 5    
Growing Degree Days 10 (Base 50)    
Moisture  
Dew Point 54 °F    
Average Humidity 77    
Maximum Humidity 94    
Minimum Humidity 58    
Precipitation  
Precipitation 0.00 in - - ()
Sea Level Pressure  
Sea Level Pressure 29.95 in    
Wind  
Wind Speed 12 mph (SW)    
Max Wind Speed 20 mph    
Max Gust Speed 29 mph    
Visibility 10 miles    
Events Rain    
Averages and records for this station are not official NWS values.
T = Trace of Precipitation, MM = Missing Value Source: NWS Daily Summary

Daily Weather History Graph

Daily Weather History Graph

Search for Another Location

Airport:

Trip Planner

Search our weather history database for the weather conditions in past years. The results will help you decide how hot, cold, wet, or windy it might be!

Date:

Astronomy

Jun. 17, 2012 Rise Set
Actual Time 5:13 AM PDT 9:08 PM PDT
Civil Twilight 4:33 AM PDT 9:48 PM PDT
Nautical Twilight 3:38 AM PDT 10:43 PM PDT
Astronomical Twilight 2:15 AM PDT 12:07 AM PDT
Moon 3:50 AM PDT (6/17) 7:38 PM PDT (6/17)
Length of Visible Light 17h 14m
Length of Day
15h 54m
Waning Crescent, 3% of the Moon is Illuminated
Jun 17
Waning Crescent
Jun 19
New
Jun 26
First Quarter
Jul 3
Full
Jul 10
Last Quarter

Hourly Weather History & Observations

Time (PDT) Temp. Dew Point Humidity Pressure Visibility Wind Dir Wind Speed Gust Speed Precip Events Conditions
12:33 AM 60.8 °F 59.0 °F 94% 29.97 in 10.0 mi SW 10.4 mph - N/A   Overcast
12:43 AM 60.8 °F 59.0 °F 94% 29.97 in 10.0 mi SW 11.5 mph - N/A   Overcast
12:48 AM 60.8 °F 59.0 °F 94% 29.97 in 10.0 mi SW 12.7 mph - N/A   Mostly Cloudy
12:58 AM 61.3 °F 59.0 °F 92% 29.98 in 10.0 mi SSW 11.5 mph - N/A   Overcast
1:02 AM 60.8 °F 59.0 °F 94% 29.97 in 10.0 mi SSW 12.7 mph - N/A Rain Light Rain
1:07 AM 60.8 °F 59.0 °F 94% 29.97 in 10.0 mi SW 11.5 mph - N/A Rain Light Rain
1:10 AM 60.8 °F 59.0 °F 94% 29.96 in 10.0 mi SW 10.4 mph - N/A   Overcast
1:30 AM 60.8 °F 57.2 °F 88% 29.96 in 10.0 mi SSW 9.2 mph - N/A   Scattered Clouds
1:58 AM 60.3 °F 56.8 °F 88% 29.96 in 10.0 mi SW 8.1 mph - 0.00 in   Mostly Cloudy
2:13 AM 60.8 °F 57.2 °F 88% 29.95 in 10.0 mi SW 9.2 mph - N/A   Overcast
2:23 AM 60.8 °F 57.2 °F 88% 29.95 in 10.0 mi SW 10.4 mph - N/A   Overcast
2:38 AM 59.0 °F 57.2 °F 94% 29.95 in 10.0 mi SW 10.4 mph - N/A   Overcast
2:58 AM 59.5 °F 55.8 °F 87% 29.96 in 10.0 mi SW 8.1 mph - N/A   Overcast
3:58 AM 59.2 °F 54.9 °F 86% 29.95 in 10.0 mi SW 9.2 mph - N/A   Overcast
4:38 AM 57.2 °F 53.6 °F 88% 29.94 in 10.0 mi SSW 8.1 mph - N/A   Mostly Cloudy
4:58 AM 57.6 °F 54.1 °F 88% 29.95 in 10.0 mi SSW 9.2 mph - N/A   Scattered Clouds
5:58 AM 57.0 °F 54.1 °F 90% 29.95 in 10.0 mi SW 8.1 mph - N/A   Mostly Cloudy
6:08 AM 57.2 °F 53.6 °F 88% 29.94 in 10.0 mi SW 8.1 mph - N/A   Mostly Cloudy
6:58 AM 58.5 °F 54.7 °F 87% 29.96 in 10.0 mi SW 9.2 mph - N/A   Overcast
7:58 AM 59.9 °F 54.9 °F 83% 29.96 in 10.0 mi SSW 10.4 mph - N/A   Overcast
8:23 AM 60.8 °F 53.6 °F 77% 29.95 in 10.0 mi SW 11.5 mph 19.6 mph N/A   Overcast
8:58 AM 62.1 °F 54.3 °F 76% 29.96 in 10.0 mi SW 16.1 mph 19.6 mph N/A   Overcast
9:43 AM 64.4 °F 53.6 °F 68% 29.94 in 10.0 mi SW 12.7 mph 21.9 mph N/A   Mostly Cloudy
9:58 AM 64.8 °F 54.7 °F 70% 29.95 in 10.0 mi WSW 17.3 mph - N/A   Mostly Cloudy
10:43 AM 66.2 °F 53.6 °F 64% 29.95 in 10.0 mi SW 13.8 mph - N/A   Overcast
10:58 AM 65.7 °F 53.8 °F 65% 29.96 in 10.0 mi WSW 16.1 mph 23.0 mph N/A   Overcast
11:13 AM 64.4 °F 53.6 °F 68% 29.95 in 10.0 mi WSW 15.0 mph 21.9 mph N/A   Overcast
11:14 AM 64.4 °F 53.6 °F 68% 29.95 in 10.0 mi WSW 13.8 mph 21.9 mph N/A Rain Light Rain
11:21 AM 62.6 °F 55.4 °F 77% 29.95 in 10.0 mi SW 15.0 mph 20.7 mph N/A Rain Light Rain
11:24 AM 62.6 °F 55.4 °F 77% 29.95 in 10.0 mi SW 15.0 mph 20.7 mph N/A   Overcast
11:33 AM 62.6 °F 55.4 °F 77% 29.95 in 10.0 mi West 15.0 mph - N/A   Overcast
11:34 AM 62.6 °F 55.4 °F 77% 29.95 in 10.0 mi West 13.8 mph - N/A   Overcast
11:44 AM 62.6 °F 55.4 °F 77% 29.95 in 10.0 mi WSW 12.7 mph - N/A   Overcast
11:58 AM 65.3 °F 54.5 °F 68% 29.96 in 10.0 mi WSW 11.5 mph 19.6 mph 0.00 in   Overcast
12:03 PM 64.4 °F 53.6 °F 68% 29.95 in 10.0 mi SW 16.1 mph 21.9 mph N/A   Overcast
12:08 PM 64.4 °F 55.4 °F 73% 29.95 in 10.0 mi SW 13.8 mph 23.0 mph N/A   Overcast
12:58 PM 65.8 °F 53.1 °F 63% 29.96 in 10.0 mi SW 16.1 mph 26.5 mph N/A   Overcast
1:30 PM 66.2 °F 53.6 °F 64% 29.96 in 10.0 mi WSW 15.0 mph 23.0 mph N/A Rain Light Rain
1:40 PM 62.6 °F 53.6 °F 72% 29.96 in 10.0 mi SW 19.6 mph 26.5 mph N/A   Mostly Cloudy
1:48 PM 62.6 °F 53.6 °F 72% 29.96 in 10.0 mi West 16.1 mph 28.8 mph N/A   Overcast
1:49 PM 62.6 °F 53.6 °F 72% 29.96 in 10.0 mi West 17.3 mph 28.8 mph N/A   Light Drizzle
1:54 PM 62.6 °F 53.6 °F 72% 29.96 in 10.0 mi West 16.1 mph 25.3 mph N/A Rain Light Rain
1:58 PM 61.9 °F 54.1 °F 76% 29.98 in 10.0 mi West 15.0 mph 25.3 mph 0.00 in Rain Light Rain
2:09 PM 60.8 °F 53.6 °F 77% 29.97 in 10.0 mi West 12.7 mph 27.6 mph N/A   Overcast
2:19 PM 64.4 °F 51.8 °F 64% 29.96 in 10.0 mi WSW 19.6 mph 24.2 mph N/A   Mostly Cloudy
2:58 PM 64.8 °F 51.3 °F 62% 29.97 in 10.0 mi WSW 18.4 mph 26.5 mph 0.00 in   Scattered Clouds
3:58 PM 65.3 °F 50.2 °F 58% 29.97 in 10.0 mi SW 19.6 mph 27.6 mph N/A   Mostly Cloudy
4:18 PM 64.4 °F 50.0 °F 59% 29.96 in 10.0 mi SW 16.1 mph 24.2 mph N/A   Mostly Cloudy
4:58 PM 62.1 °F 50.9 °F 67% 29.97 in 10.0 mi WSW 16.1 mph 19.6 mph N/A   Overcast
5:28 PM 60.8 °F 51.8 °F 72% 29.96 in 10.0 mi SSW 16.1 mph - N/A   Overcast
5:58 PM 61.2 °F 50.2 °F 67% 29.96 in 10.0 mi SW 18.4 mph 23.0 mph N/A   Overcast
6:38 PM 59.0 °F 48.2 °F 67% 29.95 in 10.0 mi SW 12.7 mph - N/A   Overcast
6:58 PM 59.4 °F 48.7 °F 68% 29.95 in 10.0 mi SW 11.5 mph - N/A   Overcast
7:58 PM 58.3 °F 47.8 °F 68% 29.94 in 10.0 mi SW 13.8 mph - N/A   Partly Cloudy
8:38 PM 57.2 °F 48.2 °F 72% 29.93 in 10.0 mi SW 10.4 mph - N/A   Overcast
8:53 PM 57.2 °F 48.2 °F 72% 29.92 in 10.0 mi SW 10.4 mph - N/A   Overcast
8:58 PM 56.5 °F 48.4 °F 74% 29.93 in 10.0 mi SW 9.2 mph - N/A   Overcast
9:58 PM 55.6 °F 47.8 °F 75% 29.94 in 10.0 mi SW 10.4 mph - N/A   Overcast
10:58 PM 54.9 °F 47.8 °F 77% 29.94 in 10.0 mi SW 9.2 mph - N/A   Overcast
11:58 PM 53.6 °F 47.3 °F 79% 29.92 in 10.0 mi SSW 10.4 mph - N/A   Overcast